[[{"header":{"parameterUnit":"m.s-1","parameterCategory":1,"la1":30.2991,"la2":30.254,"lo1":-89.0895,"lo2":-89.0444,"dy":0.0017,"dx":0.0017,"nx":28,"ny":28,"refTime":"2024-10-13T03:00:00:Z","depth":0,"parameterNumber":2,"parameterNumberName":"U-component_of_WINDS"},"data":[0,0,0,0,0,0,0,0,0,0,0,0,0,0,0,0,0,0,0,0,0,0,0,0,0,0,0,0,0,0,0,0,0,0,0,0,0,0,0,0,0,0,0,0,0,0,0,0,0,0,0,0,0,0,0,0,0,0,3.0323,3.0324,0,3.0424,3.0426,3.0427,3.0386,3.0383,3.0381,3.0379,3.048,3.0484,3.0489,0,0,0,0,0,0,0,0,0,0,0,0,0,3.0087,3.0092,3.0323,3.0324,3.0325,3.0424,3.0426,3.0427,3.0386,3.0383,3.038,3.0378,3.0478,3.0484,3.049,0,0,0,0,0,0,0,0,0,0,0,0,0,3.0189,3.0093,3.0322,3.0317,3.0317,3.0424,3.0426,3.0427,3.0387,3.0383,3.038,3.0376,3.0476,3.0483,3.049,3.0607,0,0,3.0513,3.0516,0,0,0,0,0,0,0,0,3.0184,3.0198,3.0316,3.0317,3.0318,3.0389,3.038,3.0488,3.0388,3.036,3.0379,3.0374,3.0452,3.0461,3.0488,3.0612,3.0616,3.0514,3.0518,3.0521,3.0523,0,0,0,0,0,0,0,3.0177,3.0193,3.0363,3.0318,3.0319,3.0307,3.0318,3.04,3.0425,3.0362,3.036,3.0372,3.0452,3.0481,3.049,3.0618,3.0513,3.052,3.0524,3.0527,3.0838,3.0842,0,0,0,0,0,0,3.017,3.0188,3.036,3.0366,3.0241,3.0314,3.0326,3.037,3.0424,3.0429,3.0375,3.037,3.047,3.0481,3.0493,3.063,3.0521,3.0528,3.0532,3.0834,3.0839,3.0843,0,0,0,0,0,0,3.0165,3.0186,3.0355,3.0276,3.0297,3.0322,3.0371,3.0374,3.0403,3.0434,3.0438,3.0401,3.0468,3.0483,3.0578,3.0633,3.0531,3.0538,3.083,3.0835,3.0841,3.0907,0,0,0,0,0,0,3.0158,3.0184,3.0231,3.0278,3.0301,3.0441,3.0375,3.0378,3.0416,3.041,3.0459,3.0463,3.0466,3.0568,3.0586,3.0642,3.0544,3.0825,3.0832,3.0839,3.09,3.0915,3.0927,0,0,0,0,0,3.015,3.0246,3.0233,3.0254,3.036,3.0444,3.0458,3.046,3.0421,3.0466,3.0485,3.0462,3.0625,3.0578,3.0598,3.0657,3.0821,3.083,3.0838,3.0894,3.0912,3.0927,0,0,0,0,0,0,3.0204,3.0252,3.0238,3.0352,3.0395,3.0437,3.0495,3.0479,3.0532,3.0525,3.0524,3.0535,3.0633,3.0655,3.0601,3.077,3.0717,3.073,3.0752,3.0769,3.0782,3.0774,3.055,0,0,0,0,0,3.023,3.0296,3.0333,3.043,3.0451,3.047,3.0506,3.0504,3.0547,3.0565,3.0591,3.0633,3.0693,3.0733,3.079,3.0904,3.0911,3.0954,3.0967,3.0978,3.0988,3.1045,3.1063,3.0871,3.0871,3.0871,0,0,3.0282,3.0316,3.0358,3.0441,3.0474,3.0539,3.0485,3.0558,3.0606,3.0576,3.0666,3.0687,3.0733,3.0837,3.0884,3.0858,3.1043,3.0989,3.0997,3.1002,3.1056,3.1074,3.109,3.0877,3.0876,3.0875,0,0,3.0411,3.0445,3.0527,3.0561,3.061,3.0621,3.0641,3.0685,3.0698,3.0789,3.0767,3.0823,3.0928,3.096,3.0991,3.1128,3.1107,3.1147,3.1215,3.1271,3.1286,3.1299,3.1345,3.1361,3.1158,3.1158,3.1158,0,3.047,3.057,3.0571,3.0645,3.0681,3.0657,3.0738,3.077,3.0835,3.0859,3.0829,3.0958,3.0987,3.1096,3.1129,3.1156,3.1175,3.114,3.1284,3.1298,3.131,3.1353,3.137,3.1162,3.1162,3.1161,3.1161,0,3.0637,3.0707,3.0767,3.083,3.0873,3.095,3.0961,3.1003,3.0997,3.101,3.1101,3.1135,3.1197,3.1223,3.1218,3.1331,3.1312,3.1284,3.1229,3.1332,3.1372,3.1389,3.1168,3.1167,3.1165,3.1164,0,0,3.0804,3.0865,3.0887,3.0914,3.0965,3.1018,3.1092,3.1153,3.1187,3.1233,3.1293,3.1381,3.1353,3.1388,3.1386,3.1435,3.1536,3.14,3.1401,3.1421,3.1657,3.1676,3.1695,3.1523,3.1527,3.1529,3.1652,0,3.0934,3.1066,3.1068,3.1188,3.1249,3.1226,3.129,3.1327,3.1341,3.1393,3.1407,3.1468,3.143,3.1449,3.1497,3.1514,3.1583,3.1506,3.1576,3.1578,3.1562,3.1717,3.1738,3.1852,3.1668,3.1671,3.1673,0,3.1104,3.1154,3.128,3.1318,3.1344,3.1402,3.1456,3.1508,3.1548,3.1554,3.1591,3.158,3.1653,3.1598,3.1695,3.1642,3.1671,3.1683,3.1688,3.1692,3.163,3.1722,3.1889,3.1905,3.1698,3.1696,3.1694,0,3.1208,3.1307,3.1394,3.1418,3.1466,3.1507,3.1528,3.1565,3.16,3.1647,3.1669,3.1723,3.1752,3.1794,3.1797,3.1757,3.1894,3.184,3.1898,3.1898,3.1926,3.1924,3.2097,3.195,3.195,3.1949,3.1949,0,3.1351,3.1428,3.144,3.1494,3.1578,3.1578,3.1661,3.1679,3.1711,3.1765,3.1749,3.18,3.1802,3.1854,3.1857,3.1934,3.1949,3.1953,3.1952,3.1953,3.1952,3.197,3.1961,3.1954,3.1953,3.1952,3.1951,0,3.1482,3.1493,3.1586,3.1623,3.1634,3.1694,3.1725,3.1774,3.1785,3.1854,3.187,3.1887,3.1946,3.1954,3.2023,3.2025,3.2117,3.211,3.2104,3.2102,3.2158,3.2151,3.2346,3.2369,3.2211,3.2212,3.2213,0,3.1571,3.1629,3.1672,3.1708,3.1731,3.1789,3.1824,3.1826,3.1862,3.191,3.1953,3.201,3.2056,3.2151,3.2168,3.222,3.2211,3.2276,3.2219,3.2216,3.2208,3.2203,3.2207,3.2286,3.2288,3.2289,3.2291,0,3.1727,3.1729,3.1781,3.1834,3.1876,3.1918,3.1957,3.1987,3.1993,3.2034,3.2095,3.213,3.2199,3.2255,3.2306,3.2326,3.2308,3.2309,3.2324,3.2324,3.2316,3.2317,3.213,3.2304,3.2302,3.2301,3.2301,3.23,3.1837,3.1886,3.1923,3.198,3.201,3.2046,3.2092,3.2109,3.2159,3.2216,3.2214,3.2279,3.2313,3.2379,3.2402,3.2451,3.243,3.2453,3.2459,3.2463,3.2467,3.2311,3.2461,3.2461,3.246,3.246,3.246,0,3.1989,3.2011,3.2064,3.2118,3.2162,3.2143,3.2184,3.2221,3.2279,3.2313,3.2358,3.2425,3.2478,3.2499,3.255,3.2585,3.2577,3.2598,3.2593,3.2597,3.2486,3.2465,3.2602,3.2602,3.2602,3.2602,3.2602,3.2602,3.2073,3.2154,3.216,3.2253,3.2274,3.2338,3.2362,3.2394,3.2421,3.2496,3.254,3.2553,3.2581,3.2633,3.268,3.2684,3.2702,3.2725,3.2726,3.262,3.2606,3.2592,3.2573,3.273,3.273,3.2833,3.2834,3.2835]},{"header":{"parameterUnit":"m.s-1","parameterCategory":1,"la1":30.2991,"la2":30.254,"lo1":-89.0895,"lo2":-89.0444,"dy":0.0017,"dx":0.0017,"nx":28,"ny":28,"refTime":"2024-10-13T03:00:00:Z","depth":0,"parameterNumber":3,"parameterNumberName":"V-component_of_WINDS"},"data":[0,0,0,0,0,0,0,0,0,0,0,0,0,0,0,0,0,0,0,0,0,0,0,0,0,0,0,0,0,0,0,0,0,0,0,0,0,0,0,0,0,0,0,0,0,0,0,0,0,0,0,0,0,0,0,0,0,0,0.839,0.839,0,0.8368,0.8368,0.8367,0.8332,0.8331,0.833,0.833,0.8306,0.8306,0.8306,0,0,0,0,0,0,0,0,0,0,0,0,0,0.8399,0.8399,0.839,0.839,0.839,0.8368,0.8368,0.8367,0.8332,0.8331,0.833,0.8329,0.8306,0.8306,0.8306,0,0,0,0,0,0,0,0,0,0,0,0,0,0.8388,0.8399,0.839,0.8369,0.8367,0.8368,0.8368,0.8367,0.8332,0.8331,0.833,0.8329,0.8306,0.8306,0.8306,0.8326,0,0,0.8306,0.8306,0,0,0,0,0,0,0,0,0.8389,0.8388,0.8373,0.8371,0.8368,0.8351,0.8362,0.8353,0.8332,0.8345,0.833,0.8329,0.8322,0.8321,0.8319,0.8324,0.8323,0.8306,0.8306,0.8306,0.8306,0,0,0,0,0,0,0,0.839,0.8388,0.8381,0.8372,0.837,0.836,0.8357,0.836,0.8339,0.8344,0.8341,0.8339,0.8321,0.8319,0.8318,0.8323,0.8306,0.8306,0.8306,0.8306,0.834,0.8341,0,0,0,0,0,0,0.8394,0.8389,0.8382,0.8381,0.8376,0.8361,0.8358,0.8358,0.8339,0.8336,0.834,0.8338,0.8319,0.8318,0.8317,0.8336,0.8306,0.8306,0.8306,0.8339,0.834,0.8341,0,0,0,0,0,0,0.8394,0.8393,0.8383,0.8384,0.8382,0.8362,0.8362,0.8358,0.8356,0.8336,0.8332,0.8342,0.8318,0.8317,0.8323,0.8335,0.8306,0.8306,0.8338,0.8339,0.8341,0.8376,0,0,0,0,0,0,0.8394,0.8394,0.8402,0.8385,0.8382,0.839,0.8363,0.8358,0.8356,0.8353,0.8337,0.8334,0.8318,0.8323,0.8323,0.8334,0.8306,0.8337,0.8339,0.834,0.8374,0.8379,0.8383,0,0,0,0,0,0.8395,0.8413,0.8402,0.8402,0.8392,0.8391,0.839,0.8371,0.8357,0.8364,0.8351,0.8334,0.8334,0.8324,0.8324,0.8335,0.8336,0.8338,0.834,0.8372,0.8378,0.8383,0,0,0,0,0,0,0.8433,0.8411,0.8398,0.8412,0.8404,0.8385,0.8394,0.8378,0.8374,0.8371,0.8348,0.8344,0.8353,0.8344,0.8334,0.8351,0.8332,0.8334,0.8356,0.8362,0.8366,0.8368,0.8306,0,0,0,0,0,0.8442,0.8444,0.8425,0.8438,0.8435,0.8415,0.8414,0.84,0.8391,0.8387,0.8374,0.8365,0.8363,0.8362,0.8359,0.8372,0.8367,0.838,0.8384,0.8388,0.839,0.8394,0.8398,0.8348,0.8348,0.8348,0,0,0.8463,0.8451,0.8454,0.8446,0.8438,0.8439,0.8412,0.8416,0.8416,0.8387,0.8392,0.8382,0.837,0.8379,0.8383,0.8373,0.8402,0.839,0.8393,0.8393,0.8396,0.8401,0.8405,0.8349,0.8349,0.8349,0,0,0.8501,0.8493,0.8502,0.8494,0.8482,0.8468,0.847,0.8454,0.8446,0.845,0.8428,0.8427,0.8424,0.8415,0.8411,0.8442,0.8425,0.8442,0.8465,0.8469,0.8473,0.8476,0.8486,0.8489,0.8444,0.8444,0.8444,0,0.8528,0.853,0.8509,0.8513,0.8509,0.8482,0.849,0.8483,0.8471,0.8468,0.8457,0.845,0.8441,0.8446,0.8454,0.8451,0.8452,0.8444,0.8474,0.8477,0.848,0.8489,0.8492,0.8446,0.8445,0.8445,0.8445,0,0.8563,0.8564,0.8573,0.856,0.8557,0.8564,0.8542,0.8542,0.8527,0.8514,0.8517,0.8504,0.8496,0.8496,0.8483,0.8499,0.8493,0.8478,0.8459,0.8487,0.8495,0.8498,0.8448,0.8448,0.8447,0.8447,0,0,0.8625,0.86,0.8603,0.8596,0.8579,0.8579,0.8583,0.8575,0.8574,0.8565,0.8567,0.8563,0.8548,0.8543,0.8528,0.8532,0.8555,0.8516,0.8515,0.8522,0.8569,0.858,0.8585,0.8543,0.8544,0.8544,0.857,0,0.8659,0.8665,0.8645,0.8655,0.8654,0.8628,0.863,0.862,0.8607,0.8604,0.8589,0.8586,0.8568,0.8564,0.8567,0.8551,0.8564,0.8549,0.8543,0.8543,0.8546,0.8589,0.8601,0.8626,0.8573,0.8573,0.8574,0,0.87,0.8692,0.8702,0.8682,0.8681,0.8685,0.8674,0.8672,0.8658,0.8648,0.8641,0.8623,0.8623,0.8604,0.8603,0.8594,0.859,0.8582,0.8582,0.8581,0.856,0.8587,0.8634,0.8637,0.8579,0.8578,0.8578,0,0.8743,0.8735,0.8739,0.8734,0.8712,0.8714,0.8705,0.869,0.8685,0.8676,0.8673,0.8664,0.8659,0.8651,0.863,0.8619,0.8631,0.8611,0.8622,0.8622,0.8626,0.8626,0.8671,0.8624,0.8624,0.8624,0.8624,0,0.8782,0.8789,0.8758,0.8761,0.8767,0.8743,0.8749,0.8737,0.8723,0.8722,0.8698,0.8697,0.867,0.8665,0.8649,0.8649,0.8647,0.8638,0.8634,0.864,0.8641,0.8637,0.8634,0.8625,0.8625,0.8625,0.8625,0,0.8831,0.8811,0.8814,0.8791,0.8786,0.8791,0.8771,0.8772,0.8756,0.8755,0.8753,0.8729,0.8722,0.87,0.8688,0.8677,0.8682,0.8674,0.8686,0.8683,0.8695,0.8694,0.8739,0.8742,0.8694,0.8695,0.8695,0,0.8858,0.8862,0.8839,0.8837,0.8828,0.8824,0.8819,0.8795,0.8791,0.8773,0.8776,0.8767,0.8758,0.8748,0.8729,0.8718,0.8709,0.8725,0.8708,0.8713,0.8708,0.8707,0.8707,0.873,0.873,0.8731,0.8731,0,0.8906,0.8895,0.8889,0.8879,0.8873,0.8864,0.8853,0.8852,0.8825,0.882,0.8813,0.8806,0.8793,0.8783,0.8769,0.8758,0.8739,0.8737,0.8738,0.8745,0.8752,0.8746,0.8696,0.8736,0.8736,0.8735,0.8735,0.8735,0.8943,0.8945,0.8929,0.8922,0.8911,0.8901,0.89,0.8884,0.8877,0.8864,0.885,0.8843,0.8826,0.8806,0.8796,0.8789,0.8779,0.8782,0.8783,0.8784,0.8786,0.8753,0.8787,0.8786,0.8786,0.8786,0.8786,0,0.8989,0.8977,0.8971,0.8956,0.895,0.8933,0.8919,0.8915,0.891,0.8896,0.8887,0.8877,0.8867,0.8846,0.8834,0.8832,0.8823,0.883,0.883,0.8827,0.8796,0.8795,0.8837,0.8837,0.8837,0.8837,0.8837,0.8837,0.9012,0.9013,0.9,0.8995,0.8982,0.8976,0.8969,0.8959,0.8947,0.8937,0.8928,0.8915,0.8897,0.8883,0.8872,0.8866,0.8862,0.8871,0.8862,0.8834,0.8829,0.8825,0.8824,0.8871,0.8871,0.8893,0.8893,0.8893]}]]